Time,TemperatureF,DewpointF,PressureIn,WindDirection,WindDirectionDegrees,WindSpeedMPH,WindSpeedGustMPH,Humidity,HourlyPrecipIn,Conditions,Clouds,dailyrainin,SolarRadiationWatts/m^2,SoftwareType,DateUTC
2013-04-18 00:02:00,50.0,24.0,-100.00,WNW,283,5.0,20.0,36,0.00,,,0.00,0.000000,,2013-04-18 07:02:00,
2013-04-18 00:12:00,50.0,24.0,-100.00,WNW,283,5.0,20.0,36,0.00,,,0.00,0.000000,,2013-04-18 07:12:00,
2013-04-18 00:22:00,50.0,24.0,-100.00,WNW,283,5.0,20.0,36,0.00,,,0.00,0.000000,,2013-04-18 07:22:00,
2013-04-18 00:52:00,48.0,25.0,-100.00,SW,231,2.0,12.0,41,0.00,,,0.00,0.000000,,2013-04-18 07:52:00,
2013-04-18 01:02:00,48.0,25.0,-100.00,SW,231,2.0,12.0,41,0.00,,,0.00,0.000000,,2013-04-18 08:02:00,
2013-04-18 01:12:00,48.0,25.0,-100.00,SW,231,2.0,12.0,41,0.00,,,0.00,0.000000,,2013-04-18 08:12:00,
2013-04-18 01:22:00,48.0,25.0,-100.00,SW,231,2.0,12.0,41,0.00,,,0.00,0.000000,,2013-04-18 08:22:00,
2013-04-18 01:52:00,47.0,27.0,-100.00,WSW,242,3.0,7.0,45,0.00,,,0.00,0.000000,,2013-04-18 08:52:00,
2013-04-18 02:02:00,47.0,27.0,-100.00,WSW,242,3.0,7.0,45,0.00,,,0.00,0.000000,,2013-04-18 09:02:00,
2013-04-18 02:12:00,47.0,27.0,-100.00,WSW,242,3.0,7.0,45,0.00,,,0.00,0.000000,,2013-04-18 09:12:00,
2013-04-18 02:22:00,47.0,27.0,-100.00,WSW,242,3.0,7.0,45,0.00,,,0.00,0.000000,,2013-04-18 09:22:00,
2013-04-18 02:53:00,48.0,27.0,-100.00,SW,228,5.0,11.0,43,0.00,,,0.00,0.000000,,2013-04-18 09:53:00,
2013-04-18 03:03:00,48.0,27.0,-100.00,SW,228,5.0,11.0,43,0.00,,,0.00,0.000000,,2013-04-18 10:03:00,
2013-04-18 03:12:00,48.0,27.0,-100.00,SW,228,5.0,11.0,43,0.00,,,0.00,0.000000,,2013-04-18 10:12:00,
2013-04-18 03:22:00,48.0,27.0,-100.00,SW,228,5.0,11.0,43,0.00,,,0.00,0.000000,,2013-04-18 10:22:00,
2013-04-18 03:52:00,45.0,25.0,-100.00,SW,219,6.0,14.0,46,0.00,,,0.00,0.000000,,2013-04-18 10:52:00,
2013-04-18 04:02:00,45.0,25.0,-100.00,SW,219,6.0,14.0,46,0.00,,,0.00,0.000000,,2013-04-18 11:02:00,
2013-04-18 04:12:00,45.0,25.0,-100.00,SW,219,6.0,14.0,46,0.00,,,0.00,0.000000,,2013-04-18 11:12:00,
2013-04-18 04:22:00,45.0,25.0,-100.00,SW,219,6.0,14.0,46,0.00,,,0.00,0.000000,,2013-04-18 11:22:00,
2013-04-18 04:52:00,46.0,27.0,-100.00,SW,219,2.0,10.0,47,0.00,,,0.00,0.000000,,2013-04-18 11:52:00,
2013-04-18 05:02:00,46.0,27.0,-100.00,SW,219,2.0,10.0,47,0.00,,,0.00,0.000000,,2013-04-18 12:02:00,
2013-04-18 05:12:00,46.0,27.0,-100.00,SW,219,2.0,10.0,47,0.00,,,0.00,0.000000,,2013-04-18 12:12:00,
2013-04-18 05:22:00,46.0,27.0,-100.00,SW,219,2.0,10.0,47,0.00,,,0.00,0.000000,,2013-04-18 12:22:00,
2013-04-18 05:52:00,48.0,25.0,-100.00,West,279,3.0,13.0,41,0.00,,,0.00,0.000000,,2013-04-18 12:52:00,
2013-04-18 06:02:00,48.0,25.0,-100.00,West,279,3.0,13.0,41,0.00,,,0.00,0.000000,,2013-04-18 13:02:00,
2013-04-18 06:12:00,48.0,25.0,-100.00,West,279,3.0,13.0,41,0.00,,,0.00,0.000000,,2013-04-18 13:12:00,
2013-04-18 06:22:00,48.0,25.0,-100.00,West,279,3.0,13.0,41,0.00,,,0.00,0.000000,,2013-04-18 13:22:00,
2013-04-18 06:53:00,44.0,28.0,-100.00,SW,228,4.0,9.0,52,0.00,,,0.00,5.000000,,2013-04-18 13:53:00,
2013-04-18 07:02:00,44.0,28.0,-100.00,SW,228,4.0,9.0,52,0.00,,,0.00,5.000000,,2013-04-18 14:02:00,
2013-04-18 07:12:00,44.0,28.0,-100.00,SW,228,4.0,9.0,52,0.00,,,0.00,5.000000,,2013-04-18 14:12:00,
2013-04-18 07:22:00,44.0,28.0,-100.00,SW,228,4.0,9.0,52,0.00,,,0.00,5.000000,,2013-04-18 14:22:00,
2013-04-18 07:52:00,49.0,31.0,-100.00,North,358,3.0,6.0,49,0.00,,,0.00,86.000000,,2013-04-18 14:52:00,
2013-04-18 08:02:00,49.0,31.0,-100.00,North,358,3.0,6.0,49,0.00,,,0.00,86.000000,,2013-04-18 15:02:00,
2013-04-18 08:12:00,49.0,31.0,-100.00,North,358,3.0,6.0,49,0.00,,,0.00,86.000000,,2013-04-18 15:12:00,
2013-04-18 08:22:00,49.0,31.0,-100.00,North,358,3.0,6.0,49,0.00,,,0.00,86.000000,,2013-04-18 15:22:00,
2013-04-18 08:53:00,51.0,28.0,-100.00,South,179,1.0,6.0,41,0.00,,,0.00,323.000000,,2013-04-18 15:53:00,
2013-04-18 09:03:00,51.0,28.0,-100.00,South,179,1.0,6.0,41,0.00,,,0.00,323.000000,,2013-04-18 16:03:00,
2013-04-18 09:13:00,51.0,28.0,-100.00,South,179,1.0,6.0,41,0.00,,,0.00,323.000000,,2013-04-18 16:13:00,
2013-04-18 09:22:00,51.0,28.0,-100.00,South,179,1.0,6.0,41,0.00,,,0.00,323.000000,,2013-04-18 16:22:00,
2013-04-18 09:53:00,57.0,31.0,-100.00,SW,215,3.0,6.0,37,0.00,,,0.00,491.000000,,2013-04-18 16:53:00,
2013-04-18 10:02:00,57.0,31.0,-100.00,SW,215,3.0,6.0,37,0.00,,,0.00,491.000000,,2013-04-18 17:02:00,
2013-04-18 10:12:00,57.0,31.0,-100.00,SW,215,3.0,6.0,37,0.00,,,0.00,491.000000,,2013-04-18 17:12:00,
2013-04-18 10:22:00,57.0,31.0,-100.00,SW,215,3.0,6.0,37,0.00,,,0.00,491.000000,,2013-04-18 17:22:00,
2013-04-18 10:52:00,60.0,32.0,-100.00,SW,221,5.0,8.0,35,0.00,,,0.00,634.000000,,2013-04-18 17:52:00,
2013-04-18 11:02:00,60.0,32.0,-100.00,SW,221,5.0,8.0,35,0.00,,,0.00,634.000000,,2013-04-18 18:02:00,
2013-04-18 11:12:00,60.0,32.0,-100.00,SW,221,5.0,8.0,35,0.00,,,0.00,634.000000,,2013-04-18 18:12:00,
2013-04-18 11:22:00,60.0,32.0,-100.00,SW,221,5.0,8.0,35,0.00,,,0.00,634.000000,,2013-04-18 18:22:00,
2013-04-18 11:52:00,62.0,33.0,-100.00,SW,217,5.0,9.0,34,0.00,,,0.00,739.000000,,2013-04-18 18:52:00,
2013-04-18 12:02:00,62.0,33.0,-100.00,SW,217,5.0,9.0,34,0.00,,,0.00,739.000000,,2013-04-18 19:02:00,
2013-04-18 12:12:00,62.0,33.0,-100.00,SW,217,5.0,9.0,34,0.00,,,0.00,739.000000,,2013-04-18 19:12:00,
2013-04-18 12:22:00,62.0,33.0,-100.00,SW,217,5.0,9.0,34,0.00,,,0.00,739.000000,,2013-04-18 19:22:00,
2013-04-18 12:52:00,63.0,34.0,-100.00,SW,216,7.0,10.0,34,0.00,,,0.00,802.000000,,2013-04-18 19:52:00,
2013-04-18 13:02:00,63.0,34.0,-100.00,SW,216,7.0,10.0,34,0.00,,,0.00,802.000000,,2013-04-18 20:02:00,
2013-04-18 13:12:00,63.0,34.0,-100.00,SW,216,7.0,10.0,34,0.00,,,0.00,802.000000,,2013-04-18 20:12:00,
2013-04-18 13:22:00,63.0,34.0,-100.00,SW,216,7.0,10.0,34,0.00,,,0.00,802.000000,,2013-04-18 20:22:00,
2013-04-18 13:52:00,67.0,33.0,-100.00,SSW,211,6.0,11.0,28,0.00,,,0.00,843.000000,,2013-04-18 20:52:00,
2013-04-18 14:02:00,67.0,33.0,-100.00,SSW,211,6.0,11.0,28,0.00,,,0.00,843.000000,,2013-04-18 21:02:00,
2013-04-18 14:12:00,67.0,33.0,-100.00,SSW,211,6.0,11.0,28,0.00,,,0.00,843.000000,,2013-04-18 21:12:00,
2013-04-18 14:22:00,67.0,33.0,-100.00,SSW,211,6.0,11.0,28,0.00,,,0.00,843.000000,,2013-04-18 21:22:00,
2013-04-18 14:53:00,66.0,32.0,-100.00,WSW,253,8.0,18.0,28,0.00,,,0.00,842.000000,,2013-04-18 21:53:00,
2013-04-18 15:02:00,66.0,32.0,-100.00,WSW,253,8.0,18.0,28,0.00,,,0.00,842.000000,,2013-04-18 22:02:00,
2013-04-18 15:12:00,66.0,32.0,-100.00,WSW,253,8.0,18.0,28,0.00,,,0.00,842.000000,,2013-04-18 22:12:00,
2013-04-18 15:22:00,66.0,32.0,-100.00,WSW,253,8.0,18.0,28,0.00,,,0.00,842.000000,,2013-04-18 22:22:00,
2013-04-18 15:52:00,66.0,33.0,-100.00,West,266,9.0,20.0,29,0.00,,,0.00,517.000000,,2013-04-18 22:52:00,
2013-04-18 16:03:00,66.0,33.0,-100.00,West,266,9.0,20.0,29,0.00,,,0.00,517.000000,,2013-04-18 23:03:00,
2013-04-18 16:11:00,66.0,33.0,-100.00,West,266,9.0,20.0,29,0.00,,,0.00,517.000000,,2013-04-18 23:11:00,
2013-04-18 16:21:00,66.0,33.0,-100.00,West,266,9.0,20.0,29,0.00,,,0.00,517.000000,,2013-04-18 23:21:00,
2013-04-18 16:52:00,64.0,32.0,-100.00,WSW,245,7.0,17.0,30,0.00,,,0.00,424.000000,,2013-04-18 23:52:00,
2013-04-18 17:01:00,64.0,32.0,-100.00,WSW,245,7.0,17.0,30,0.00,,,0.00,424.000000,,2013-04-19 00:01:00,
2013-04-18 17:12:00,64.0,32.0,-100.00,WSW,245,7.0,17.0,30,0.00,,,0.00,424.000000,,2013-04-19 00:12:00,
2013-04-18 17:21:00,64.0,32.0,-100.00,WSW,245,7.0,17.0,30,0.00,,,0.00,424.000000,,2013-04-19 00:21:00,
2013-04-18 17:52:00,61.0,33.0,-100.00,West,267,5.0,14.0,35,0.00,,,0.00,163.000000,,2013-04-19 00:52:00,
2013-04-18 18:01:00,61.0,33.0,-100.00,West,267,5.0,14.0,35,0.00,,,0.00,163.000000,,2013-04-19 01:01:00,
2013-04-18 18:11:00,61.0,33.0,-100.00,West,267,5.0,14.0,35,0.00,,,0.00,163.000000,,2013-04-19 01:11:00,
2013-04-18 18:21:00,61.0,33.0,-100.00,West,267,5.0,14.0,35,0.00,,,0.00,163.000000,,2013-04-19 01:21:00,
2013-04-18 18:52:00,59.0,31.0,-100.00,WNW,288,11.0,15.0,35,0.00,,,0.00,69.000000,,2013-04-19 01:52:00,
2013-04-18 19:01:00,59.0,31.0,-100.00,WNW,288,11.0,15.0,35,0.00,,,0.00,69.000000,,2013-04-19 02:01:00,
2013-04-18 19:11:00,59.0,31.0,-100.00,WNW,288,11.0,15.0,35,0.00,,,0.00,69.000000,,2013-04-19 02:11:00,
2013-04-18 19:21:00,59.0,31.0,-100.00,WNW,288,11.0,15.0,35,0.00,,,0.00,69.000000,,2013-04-19 02:21:00,
2013-04-18 19:52:00,58.0,32.0,-100.00,WNW,301,9.0,19.0,37,0.00,,,0.00,50.000000,,2013-04-19 02:52:00,
2013-04-18 20:01:00,58.0,32.0,-100.00,WNW,301,9.0,19.0,37,0.00,,,0.00,50.000000,,2013-04-19 03:01:00,
2013-04-18 20:11:00,58.0,32.0,-100.00,WNW,301,9.0,19.0,37,0.00,,,0.00,50.000000,,2013-04-19 03:11:00,
2013-04-18 20:21:00,58.0,32.0,-100.00,WNW,301,9.0,19.0,37,0.00,,,0.00,50.000000,,2013-04-19 03:21:00,
2013-04-18 20:53:00,56.0,31.0,-100.00,NNE,32,2.0,15.0,38,0.00,,,0.00,4.000000,,2013-04-19 03:53:00,
2013-04-18 21:03:00,56.0,31.0,-100.00,NNE,32,2.0,15.0,38,0.00,,,0.00,4.000000,,2013-04-19 04:03:00,
2013-04-18 21:13:00,56.0,31.0,-100.00,NNE,32,2.0,15.0,38,0.00,,,0.00,4.000000,,2013-04-19 04:13:00,
2013-04-18 21:23:00,56.0,31.0,-100.00,NNE,32,2.0,15.0,38,0.00,,,0.00,4.000000,,2013-04-19 04:23:00,
2013-04-18 21:52:00,56.0,31.0,-100.00,ESE,120,0.0,12.0,38,0.00,,,0.00,0.000000,,2013-04-19 04:52:00,
2013-04-18 22:03:00,56.0,31.0,-100.00,ESE,120,0.0,12.0,38,0.00,,,0.00,0.000000,,2013-04-19 05:03:00,
2013-04-18 22:11:00,56.0,31.0,-100.00,ESE,120,0.0,12.0,38,0.00,,,0.00,0.000000,,2013-04-19 05:11:00,
2013-04-18 22:22:00,56.0,31.0,-100.00,ESE,120,0.0,12.0,38,0.00,,,0.00,0.000000,,2013-04-19 05:22:00,
2013-04-18 22:52:00,52.0,31.0,-100.00,NE,41,1.0,5.0,45,0.00,,,0.00,0.000000,,2013-04-19 05:52:00,
2013-04-18 23:01:00,52.0,31.0,-100.00,NE,41,1.0,5.0,45,0.00,,,0.00,0.000000,,2013-04-19 06:01:00,
2013-04-18 23:11:00,52.0,31.0,-100.00,NE,41,1.0,5.0,45,0.00,,,0.00,0.000000,,2013-04-19 06:11:00,
2013-04-18 23:22:00,52.0,31.0,-100.00,NE,41,1.0,5.0,45,0.00,,,0.00,0.000000,,2013-04-19 06:22:00,
2013-04-18 23:53:00,52.0,32.0,-100.00,WSW,238,1.0,5.0,46,0.00,,,-99.99,0.000000,,2013-04-19 06:53:00,